[[{"header":{"parameterUnit":"m.s-1","parameterCategory":2,"la1":30.2991,"la2":30.254,"lo1":-89.0895,"lo2":-89.0444,"dy":0.0017,"dx":0.0017,"nx":28,"ny":28,"refTime":"2023-10-03T21:00:00:Z","depth":"0","parameterNumber":2,"parameterNumberName":"U-component_of_CURRENTS"},"data":[0,0,0,0,0,0,0,0,0,0,0,0,0,0,0,0,0,0,0,0,0,0,0,0,0,0,0,0,0,0,0,0,0,0,0,0,0,0,0,0,0,0,0,0,0,0,0,0,0,0,0,0,0,0,0,0,0,0,0.1942,0.1943,0,0.1951,0.1951,0.1951,0.1954,0.1954,0.1955,0.1955,0.1939,0.1939,0.1938,0,0,0,0,0,0,0,0,0,0,0,0,0,0.1922,0.1922,0.1942,0.1943,0.1943,0.1951,0.1951,0.1951,0.1954,0.1954,0.1955,0.1955,0.1939,0.1939,0.1938,0,0,0,0,0,0,0,0,0,0,0,0,0,0.1928,0.1922,0.1942,0.1948,0.1948,0.1951,0.1951,0.1951,0.1954,0.1954,0.1955,0.1955,0.194,0.1939,0.1938,0.1926,0,0,0.1935,0.1935,0,0,0,0,0,0,0,0,0.1928,0.1929,0.1946,0.1947,0.1948,0.1954,0.1938,0.1942,0.1954,0.1949,0.1955,0.1955,0.1943,0.1942,0.194,0.1925,0.1924,0.1935,0.1934,0.1934,0.1934,0,0,0,0,0,0,0,0.1928,0.1929,0.1943,0.1947,0.1948,0.1947,0.1948,0.1939,0.1942,0.195,0.1951,0.1955,0.1943,0.1941,0.1939,0.1924,0.1935,0.1934,0.1933,0.1933,0.1917,0.1918,0,0,0,0,0,0,0.1932,0.1928,0.1943,0.1944,0.1941,0.1948,0.1949,0.195,0.1943,0.1943,0.1955,0.1956,0.1942,0.194,0.1939,0.1945,0.1934,0.1933,0.1933,0.1917,0.1918,0.1918,0,0,0,0,0,0,0.1931,0.1933,0.1943,0.1938,0.194,0.1948,0.1949,0.195,0.195,0.1948,0.1947,0.1955,0.1942,0.194,0.1936,0.1943,0.1933,0.1932,0.1917,0.1917,0.1918,0.1943,0,0,0,0,0,0,0.193,0.1932,0.193,0.1938,0.194,0.1945,0.1949,0.195,0.1953,0.1954,0.1947,0.1946,0.1942,0.1938,0.1935,0.1942,0.1931,0.1917,0.1917,0.1918,0.1942,0.1944,0.1946,0,0,0,0,0,0.1929,0.1923,0.193,0.1932,0.1939,0.1946,0.1946,0.1951,0.1953,0.1952,0.1951,0.1946,0.1938,0.1937,0.1934,0.1941,0.1917,0.1917,0.1918,0.1941,0.1944,0.1946,0,0,0,0,0,0,0.1906,0.1923,0.1931,0.1928,0.1939,0.1947,0.1945,0.1951,0.1949,0.1949,0.1945,0.1944,0.1945,0.1936,0.1935,0.1937,0.1927,0.1927,0.1946,0.1948,0.195,0.1963,0.193,0,0,0,0,0,0.1903,0.1906,0.1923,0.1921,0.1926,0.1936,0.1939,0.1945,0.1948,0.1947,0.1946,0.1943,0.1943,0.194,0.1937,0.1933,0.194,0.1936,0.1938,0.1939,0.1948,0.1956,0.196,0.1919,0.1919,0.1919,0,0,0.1892,0.1904,0.1904,0.1917,0.1924,0.1936,0.1938,0.1943,0.1955,0.1945,0.1952,0.1948,0.1944,0.1946,0.1945,0.194,0.1957,0.194,0.1941,0.1949,0.1957,0.1961,0.1965,0.1919,0.1919,0.1919,0,0,0.1878,0.1885,0.1887,0.19,0.1918,0.1929,0.1932,0.1944,0.195,0.1957,0.1958,0.196,0.1953,0.1958,0.1958,0.1965,0.1968,0.1961,0.198,0.1988,0.1992,0.1995,0.2022,0.2028,0.1961,0.1961,0.1961,0,0.1866,0.1876,0.1887,0.1899,0.1915,0.1928,0.1942,0.1948,0.1959,0.1969,0.1962,0.1971,0.1962,0.1977,0.1981,0.1971,0.1982,0.1973,0.1992,0.1995,0.1998,0.2025,0.2031,0.1962,0.1962,0.1962,0.1962,0,0.186,0.1873,0.1875,0.1901,0.1917,0.1928,0.1952,0.1964,0.1974,0.1984,0.2,0.1993,0.2004,0.1997,0.1991,0.201,0.2014,0.1995,0.1989,0.2004,0.2031,0.2037,0.1964,0.1963,0.1963,0.1963,0,0,0.1823,0.1865,0.1866,0.189,0.1924,0.1938,0.1963,0.1992,0.2014,0.2018,0.2044,0.2041,0.2043,0.2044,0.2038,0.204,0.2069,0.2028,0.2028,0.2061,0.2106,0.2211,0.2227,0.2053,0.2054,0.2054,0.2122,0,0.1819,0.1847,0.1869,0.1903,0.1925,0.1958,0.1983,0.2011,0.2032,0.2058,0.2061,0.2079,0.206,0.207,0.207,0.2072,0.2083,0.2054,0.2081,0.2083,0.2178,0.2236,0.2227,0.2295,0.2127,0.2128,0.2129,0,0.1808,0.1836,0.1866,0.1926,0.1937,0.1956,0.2014,0.204,0.2079,0.2097,0.2119,0.2126,0.2147,0.2118,0.2142,0.2126,0.2121,0.2116,0.2118,0.2212,0.2199,0.2249,0.2312,0.224,0.2137,0.2137,0.2136,0,0.179,0.1835,0.1864,0.1883,0.1944,0.1965,0.1998,0.2045,0.2076,0.2126,0.2153,0.2177,0.2204,0.2195,0.2211,0.2172,0.2241,0.2183,0.2275,0.2282,0.228,0.2287,0.2282,0.2195,0.2195,0.2195,0.2195,0,0.1784,0.1807,0.1856,0.1875,0.1911,0.1959,0.2004,0.2041,0.2095,0.2146,0.2171,0.2231,0.2223,0.2267,0.2245,0.2317,0.2277,0.2308,0.2316,0.2292,0.2299,0.2242,0.2203,0.2198,0.2197,0.2197,0.2196,0,0.1757,0.179,0.1827,0.1886,0.1903,0.1929,0.2001,0.2036,0.2095,0.2165,0.2187,0.2277,0.2372,0.238,0.2402,0.2394,0.2375,0.2447,0.2443,0.2452,0.2474,0.2438,0.2364,0.228,0.2554,0.2558,0.256,0,0.1746,0.1761,0.1821,0.1842,0.1865,0.1914,0.1951,0.2022,0.2072,0.2211,0.2249,0.2374,0.2475,0.2585,0.2624,0.2657,0.2503,0.2643,0.2569,0.2513,0.2475,0.2319,0.2238,0.2565,0.2568,0.257,0.2571,0,0.1723,0.1741,0.1772,0.1815,0.185,0.1895,0.1959,0.1989,0.2098,0.2174,0.2311,0.2406,0.2604,0.2686,0.2779,0.2786,0.2549,0.2691,0.2607,0.2491,0.2341,0.2252,0.2491,0.2589,0.2588,0.2586,0.2585,0.2585,0.1697,0.1708,0.1747,0.178,0.1821,0.1855,0.1872,0.1959,0.2033,0.2135,0.2296,0.2425,0.2633,0.2803,0.2796,0.2821,0.2721,0.2733,0.2697,0.2543,0.2456,0.2778,0.2908,0.2908,0.2908,0.2908,0.2908,0,0.1657,0.1681,0.1715,0.1745,0.1761,0.1805,0.1863,0.1871,0.1937,0.2093,0.2212,0.2444,0.2585,0.2708,0.2868,0.281,0.2605,0.2729,0.2458,0.2376,0.2654,0.2652,0.2764,0.2764,0.2764,0.2764,0.2764,0.2764,0.1638,0.165,0.1667,0.167,0.1695,0.1686,0.17,0.1729,0.1815,0.1949,0.2093,0.2245,0.2539,0.2768,0.2799,0.2736,0.2464,0.2433,0.2322,0.25,0.2494,0.2487,0.2473,0.2546,0.2546,0.1938,0.1934,0.1931]},{"header":{"parameterUnit":"m.s-1","parameterCategory":2,"la1":30.2991,"la2":30.254,"lo1":-89.0895,"lo2":-89.0444,"dy":0.0017,"dx":0.0017,"nx":28,"ny":28,"refTime":"2023-10-03T21:00:00:Z","depth":"0","parameterNumber":3,"parameterNumberName":"V-component_of_CURRENTS"},"data":[0,0,0,0,0,0,0,0,0,0,0,0,0,0,0,0,0,0,0,0,0,0,0,0,0,0,0,0,0,0,0,0,0,0,0,0,0,0,0,0,0,0,0,0,0,0,0,0,0,0,0,0,0,0,0,0,0,0,-0.0343,-0.0344,0,-0.0402,-0.0402,-0.0403,-0.0442,-0.0442,-0.0442,-0.0443,-0.0513,-0.0515,-0.0516,0,0,0,0,0,0,0,0,0,0,0,0,0,-0.0283,-0.0284,-0.0343,-0.0344,-0.0344,-0.0402,-0.0402,-0.0403,-0.0442,-0.0442,-0.0442,-0.0443,-0.0512,-0.0514,-0.0516,0,0,0,0,0,0,0,0,0,0,0,0,0,-0.0322,-0.0284,-0.0343,-0.0371,-0.0374,-0.0401,-0.0402,-0.0403,-0.0442,-0.0442,-0.0443,-0.0443,-0.0512,-0.0514,-0.0517,-0.0524,0,0,-0.0524,-0.0525,0,0,0,0,0,0,0,0,-0.032,-0.0324,-0.0366,-0.0369,-0.0372,-0.0415,-0.0407,-0.0444,-0.0442,-0.0416,-0.0443,-0.0443,-0.0481,-0.0486,-0.0496,-0.0527,-0.053,-0.0524,-0.0526,-0.0527,-0.0528,0,0,0,0,0,0,0,-0.0317,-0.0322,-0.0366,-0.0367,-0.037,-0.0387,-0.0392,-0.0414,-0.0446,-0.0418,-0.0421,-0.0428,-0.0483,-0.0493,-0.0498,-0.0531,-0.0524,-0.0526,-0.0528,-0.0529,-0.0586,-0.0587,0,0,0,0,0,0,-0.0309,-0.0319,-0.0364,-0.0368,-0.0346,-0.0387,-0.0394,-0.0401,-0.0445,-0.0452,-0.0427,-0.0429,-0.0489,-0.0495,-0.0501,-0.0522,-0.0527,-0.0529,-0.0531,-0.0586,-0.0587,-0.0587,0,0,0,0,0,0,-0.0307,-0.0312,-0.0362,-0.0345,-0.0353,-0.0388,-0.0395,-0.0402,-0.0413,-0.0452,-0.0459,-0.0432,-0.049,-0.0497,-0.0521,-0.0525,-0.053,-0.0532,-0.0586,-0.0586,-0.0587,-0.0559,0,0,0,0,0,0,-0.0305,-0.0311,-0.0311,-0.0344,-0.0353,-0.0374,-0.0395,-0.0403,-0.0416,-0.0419,-0.0458,-0.0465,-0.0491,-0.0517,-0.0523,-0.0528,-0.0534,-0.0586,-0.0586,-0.0587,-0.056,-0.0558,-0.0556,0,0,0,0,0,-0.0303,-0.03,-0.031,-0.0316,-0.0352,-0.0374,-0.0379,-0.0406,-0.0416,-0.0417,-0.0446,-0.0464,-0.0522,-0.0519,-0.0526,-0.0532,-0.0586,-0.0586,-0.0586,-0.056,-0.0558,-0.0556,0,0,0,0,0,0,-0.0275,-0.0305,-0.0317,-0.0324,-0.0345,-0.038,-0.0383,-0.0401,-0.0425,-0.0427,-0.0465,-0.0474,-0.0496,-0.0516,-0.0511,-0.0549,-0.0557,-0.0559,-0.0535,-0.0533,-0.0532,-0.0537,-0.0536,0,0,0,0,0,-0.0268,-0.0274,-0.0305,-0.031,-0.0317,-0.0348,-0.0359,-0.0377,-0.0404,-0.0414,-0.0443,-0.0474,-0.0502,-0.0518,-0.0543,-0.0562,-0.059,-0.0571,-0.0569,-0.0568,-0.0577,-0.0621,-0.0625,-0.0587,-0.0587,-0.0587,0,0,-0.026,-0.0276,-0.0281,-0.0305,-0.0321,-0.0329,-0.0355,-0.0368,-0.0381,-0.0418,-0.044,-0.0467,-0.0505,-0.0529,-0.0541,-0.0547,-0.059,-0.0568,-0.0566,-0.0577,-0.0622,-0.0626,-0.0629,-0.0587,-0.0587,-0.0587,0,0,-0.0243,-0.0259,-0.0256,-0.0269,-0.029,-0.0311,-0.0312,-0.0344,-0.0363,-0.0386,-0.0419,-0.0451,-0.0486,-0.0522,-0.0544,-0.0548,-0.0578,-0.055,-0.0551,-0.0593,-0.0597,-0.06,-0.0627,-0.0633,-0.0552,-0.0551,-0.0551,0,-0.023,-0.0234,-0.0258,-0.0257,-0.0266,-0.03,-0.0298,-0.0324,-0.0361,-0.0381,-0.0387,-0.0459,-0.0487,-0.0534,-0.0538,-0.0546,-0.0569,-0.0554,-0.0591,-0.0596,-0.06,-0.0626,-0.0634,-0.055,-0.055,-0.055,-0.0551,0,-0.0213,-0.0214,-0.0212,-0.0224,-0.0237,-0.024,-0.0275,-0.0294,-0.0319,-0.0351,-0.0397,-0.0442,-0.0487,-0.05,-0.0523,-0.0568,-0.0573,-0.0582,-0.0596,-0.0602,-0.0629,-0.0637,-0.0548,-0.0549,-0.0549,-0.0549,0,0,-0.0182,-0.0196,-0.0194,-0.0192,-0.0218,-0.0225,-0.0249,-0.0284,-0.0301,-0.0348,-0.0376,-0.044,-0.047,-0.0497,-0.0531,-0.0574,-0.0619,-0.059,-0.0593,-0.0615,-0.0703,-0.0653,-0.0658,-0.0633,-0.0635,-0.0636,-0.0705,0,-0.0158,-0.0147,-0.0166,-0.0157,-0.0153,-0.0192,-0.0211,-0.025,-0.0286,-0.0321,-0.0389,-0.0422,-0.0467,-0.0481,-0.0537,-0.0594,-0.0641,-0.0599,-0.0695,-0.0698,-0.0653,-0.0666,-0.0584,-0.0634,-0.0713,-0.0714,-0.0715,0,-0.0128,-0.0126,-0.0112,-0.0123,-0.0125,-0.013,-0.0165,-0.0185,-0.025,-0.0279,-0.034,-0.0386,-0.0462,-0.0487,-0.0614,-0.0584,-0.0647,-0.0695,-0.0699,-0.0672,-0.0664,-0.0644,-0.0646,-0.0791,-0.0728,-0.0727,-0.0726,0,-0.0087,-0.0086,-0.0074,-0.0076,-0.0097,-0.0104,-0.0119,-0.0172,-0.0179,-0.0247,-0.0253,-0.0363,-0.0388,-0.0505,-0.0603,-0.0614,-0.0727,-0.0751,-0.0773,-0.077,-0.073,-0.072,-0.0883,-0.0849,-0.0849,-0.0848,-0.0848,0,-0.0051,-0.0037,-0.0052,-0.0042,-0.0028,-0.006,-0.0054,-0.009,-0.0122,-0.0106,-0.0221,-0.0219,-0.0392,-0.0472,-0.0591,-0.0693,-0.0721,-0.078,-0.0789,-0.0714,-0.0703,-0.0849,-0.0933,-0.0851,-0.085,-0.085,-0.085,0,-0.0004,-0.0014,0.0005,-0.0006,-0.0004,0.0007,0.0011,0.0018,-0.0026,-0.0005,-0.0016,-0.011,-0.02,-0.0369,-0.0532,-0.0642,-0.0824,-0.0794,-0.0684,-0.0678,-0.0834,-0.0916,-0.108,-0.1144,-0.0845,-0.0845,-0.0844,0,0.0022,0.0036,0.0045,0.0067,0.0067,0.0082,0.0102,0.0072,0.0096,0.0085,0.0112,0.0031,0.0018,-0.0216,-0.0419,-0.062,-0.0778,-0.0699,-0.0714,-0.0839,-0.0939,-0.1003,-0.1051,-0.0652,-0.065,-0.0648,-0.0647,0,0.007,0.0072,0.0087,0.0136,0.0166,0.0199,0.0231,0.0271,0.0264,0.0306,0.0367,0.0363,0.0161,0.0015,-0.0276,-0.0427,-0.0772,-0.0668,-0.0838,-0.0838,-0.088,-0.0942,-0.0609,-0.0631,-0.0632,-0.0634,-0.0634,-0.0635,0.011,0.0133,0.016,0.0209,0.0254,0.0323,0.0382,0.0444,0.0533,0.0638,0.0611,0.0682,0.0408,0.0045,-0.0201,-0.06,-0.0657,-0.0726,-0.0826,-0.0888,-0.0925,-0.0544,-0.0547,-0.0548,-0.0549,-0.055,-0.055,0,0.0158,0.0186,0.0236,0.03,0.0376,0.0379,0.0478,0.0567,0.0728,0.0851,0.0951,0.0921,0.0579,0.0172,-0.0364,-0.069,-0.0837,-0.0899,-0.0999,-0.105,-0.074,-0.0706,-0.0691,-0.0691,-0.0691,-0.0691,-0.0691,-0.0691,0.0184,0.0239,0.0267,0.0398,0.0458,0.0578,0.0654,0.0802,0.0924,0.1144,0.1252,0.1284,0.0993,-0.0014,-0.0748,-0.094,-0.1198,-0.1227,-0.1413,-0.1222,-0.1215,-0.1208,-0.1198,-0.1287,-0.1288,-0.1651,-0.1655,-0.1658]}],[{"header":{"parameterUnit":"m.s-1","parameterCategory":2,"la1":30.2991,"la2":30.254,"lo1":-89.0895,"lo2":-89.0444,"dy":0.0017,"dx":0.0017,"nx":28,"ny":28,"refTime":"2023-10-03T21:00:00:Z","depth":"2","parameterNumber":2,"parameterNumberName":"U-component_of_CURRENTS"},"data":[0,0,0,0,0,0,0,0,0,0,0,0,0,0,0,0,0,0,0,0,0,0,0,0,0,0,0,0,0,0,0,0,0,0,0,0,0,0,0,0,0,0,0,0,0,0,0,0,0,0,0,0,0,0,0,0,0,0,0.186,0.1861,0,0.1885,0.1885,0.1885,0.1892,0.1893,0.1893,0.1893,0.1907,0.1907,0.1907,0,0,0,0,0,0,0,0,0,0,0,0,0,0.1817,0.1818,0.186,0.1861,0.1861,0.1885,0.1885,0.1885,0.1892,0.1893,0.1893,0.1893,0.1907,0.1907,0.1907,0,0,0,0,0,0,0,0,0,0,0,0,0,0.1835,0.1818,0.186,0.1871,0.1872,0.1885,0.1885,0.1885,0.1892,0.1893,0.1893,0.1893,0.1907,0.1907,0.1907,0.1901,0,0,0.1908,0.1908,0,0,0,0,0,0,0,0,0.1834,0.1836,0.1868,0.187,0.1872,0.189,0.1876,0.1892,0.1892,0.188,0.1893,0.1893,0.1902,0.1903,0.1901,0.1902,0.1903,0.1908,0.1908,0.1908,0.1908,0,0,0,0,0,0,0,0.1832,0.1835,0.1866,0.1869,0.1871,0.1875,0.1877,0.1878,0.1886,0.1881,0.1883,0.1892,0.1903,0.1901,0.1902,0.1903,0.1908,0.1908,0.1908,0.1908,0.1934,0.1935,0,0,0,0,0,0,0.1837,0.1833,0.1865,0.1867,0.1858,0.1875,0.1878,0.188,0.1886,0.1888,0.1892,0.1893,0.19,0.1901,0.1902,0.1939,0.1908,0.1908,0.1908,0.1934,0.1934,0.1935,0,0,0,0,0,0,0.1836,0.1839,0.1864,0.1854,0.1858,0.1876,0.1878,0.1881,0.189,0.1895,0.1896,0.1901,0.1901,0.1902,0.1908,0.1938,0.1908,0.1909,0.1933,0.1934,0.1935,0.1984,0,0,0,0,0,0,0.1834,0.1839,0.1843,0.1855,0.1859,0.1875,0.1879,0.1881,0.1896,0.1898,0.1903,0.1904,0.1901,0.1908,0.1908,0.1937,0.1909,0.1932,0.1933,0.1934,0.1982,0.1986,0.199,0,0,0,0,0,0.1833,0.1834,0.1843,0.1847,0.1864,0.1875,0.1877,0.1889,0.1897,0.1898,0.1903,0.1904,0.1915,0.1908,0.1909,0.1939,0.1932,0.1933,0.1934,0.198,0.1985,0.199,0,0,0,0,0,0,0.1818,0.1836,0.1845,0.1853,0.1867,0.1878,0.1885,0.1894,0.1899,0.1904,0.1905,0.1906,0.1927,0.1919,0.1911,0.1948,0.1927,0.1928,0.1961,0.1966,0.197,0.1977,0.1909,0,0,0,0,0,0.1818,0.1823,0.1843,0.185,0.1859,0.1874,0.1882,0.1892,0.19,0.1903,0.1913,0.1921,0.1931,0.1936,0.1941,0.1955,0.1962,0.1975,0.198,0.1984,0.1989,0.2009,0.2016,0.1939,0.1939,0.1939,0,0,0.1813,0.1826,0.1829,0.1847,0.1859,0.1878,0.1879,0.1894,0.192,0.1903,0.1938,0.1938,0.1937,0.1958,0.1967,0.1956,0.2013,0.1985,0.1989,0.1992,0.2011,0.2018,0.2025,0.194,0.194,0.194,0,0,0.1809,0.1821,0.1827,0.1841,0.1866,0.1882,0.189,0.1913,0.1932,0.1956,0.1959,0.197,0.1986,0.1994,0.1998,0.2027,0.2037,0.2034,0.2063,0.2083,0.209,0.2096,0.2136,0.2145,0.2036,0.2036,0.2036,0,0.1805,0.1821,0.183,0.1845,0.1872,0.1888,0.1914,0.1931,0.1956,0.1978,0.1974,0.2008,0.2006,0.2036,0.2046,0.204,0.2057,0.2045,0.209,0.2096,0.2101,0.2141,0.215,0.2038,0.2038,0.2038,0.2037,0,0.1808,0.1829,0.1835,0.1867,0.1892,0.1914,0.1951,0.1978,0.2008,0.2026,0.2067,0.2062,0.2081,0.2087,0.2075,0.2116,0.212,0.2096,0.208,0.2112,0.2152,0.2161,0.2042,0.2041,0.204,0.204,0,0,0.178,0.183,0.1832,0.1866,0.1912,0.1935,0.1986,0.2037,0.2072,0.2095,0.2141,0.2154,0.2151,0.2155,0.2148,0.2162,0.2217,0.2147,0.2147,0.2193,0.2284,0.23,0.2311,0.2202,0.2203,0.2204,0.2305,0,0.1786,0.1824,0.1855,0.191,0.1941,0.1988,0.2033,0.2079,0.2118,0.2159,0.2171,0.2199,0.2179,0.2188,0.2202,0.2211,0.2239,0.2193,0.224,0.2242,0.2256,0.2321,0.2117,0.219,0.2313,0.2315,0.2316,0,0.1782,0.1815,0.1866,0.195,0.1969,0.2003,0.2093,0.2135,0.2189,0.2217,0.2246,0.2253,0.2287,0.2254,0.2305,0.2279,0.229,0.2294,0.2297,0.2299,0.2274,0.2172,0.2201,0.2331,0.2329,0.2328,0.2327,0,0.1762,0.183,0.188,0.1904,0.1987,0.203,0.208,0.2145,0.2189,0.2249,0.2277,0.2316,0.234,0.2357,0.2382,0.2345,0.2442,0.2387,0.2419,0.2421,0.2249,0.2234,0.2427,0.2427,0.2427,0.2427,0.2427,0,0.1759,0.1799,0.1872,0.1895,0.196,0.2024,0.2094,0.2144,0.2209,0.2262,0.2297,0.235,0.2365,0.2421,0.2423,0.2475,0.2483,0.2449,0.2452,0.2264,0.225,0.236,0.2351,0.2431,0.243,0.2429,0.2428,0,0.1724,0.1773,0.183,0.1917,0.1949,0.1991,0.2093,0.2134,0.2203,0.2275,0.2297,0.2386,0.2484,0.2519,0.257,0.2537,0.2573,0.2587,0.2385,0.2364,0.2525,0.2517,0.2621,0.2623,0.2624,0.2625,0.2626,0,0.1711,0.1735,0.1825,0.1859,0.1899,0.1973,0.202,0.2112,0.216,0.2307,0.2335,0.2464,0.2517,0.2623,0.2625,0.2657,0.2679,0.2482,0.2365,0.2555,0.2548,0.2537,0.2528,0.216,0.2157,0.2155,0.2153,0,0.1688,0.1717,0.176,0.1816,0.1873,0.1937,0.2015,0.2044,0.2164,0.2219,0.2324,0.2377,0.2518,0.2469,0.254,0.2523,0.2456,0.2436,0.2681,0.2156,0.2132,0.2121,0.2124,0.2131,0.2133,0.2135,0.2136,0.2137,0.1665,0.1679,0.1729,0.1775,0.1835,0.1877,0.1899,0.1963,0.2013,0.207,0.2215,0.2231,0.2296,0.23,0.227,0.227,0.242,0.2283,0.2285,0.2291,0.2233,0.2213,0.2218,0.2221,0.2223,0.2225,0.2227,0,0.1626,0.1652,0.169,0.1738,0.1758,0.1826,0.1878,0.1858,0.1861,0.1949,0.1992,0.1877,0.1867,0.1967,0.1921,0.1934,0.1843,0.1872,0.1719,0.1745,0.1768,0.1676,0.1517,0.1514,0.1512,0.151,0,0,0.1611,0.1618,0.1626,0.1637,0.1682,0.1689,0.1698,0.1654,0.1676,0.163,0.1637,0.1765,0.1889,0.1659,0.166,0.1583,0.1637,0.1526,0.2103,0.1949,0.1967,0.2028,0.1923,0,0,0,0,0]},{"header":{"parameterUnit":"m.s-1","parameterCategory":2,"la1":30.2991,"la2":30.254,"lo1":-89.0895,"lo2":-89.0444,"dy":0.0017,"dx":0.0017,"nx":28,"ny":28,"refTime":"2023-10-03T21:00:00:Z","depth":"2","parameterNumber":3,"parameterNumberName":"V-component_of_CURRENTS"},"data":[0,0,0,0,0,0,0,0,0,0,0,0,0,0,0,0,0,0,0,0,0,0,0,0,0,0,0,0,0,0,0,0,0,0,0,0,0,0,0,0,0,0,0,0,0,0,0,0,0,0,0,0,0,0,0,0,0,0,-0.0048,-0.0049,0,-0.0112,-0.0113,-0.0113,-0.0146,-0.0146,-0.0146,-0.0146,-0.0231,-0.0233,-0.0235,0,0,0,0,0,0,0,0,0,0,0,0,0,0.0013,0.0012,-0.0048,-0.0049,-0.005,-0.0112,-0.0113,-0.0113,-0.0146,-0.0146,-0.0146,-0.0146,-0.023,-0.0233,-0.0235,0,0,0,0,0,0,0,0,0,0,0,0,0,-0.0027,0.0012,-0.0048,-0.0075,-0.0078,-0.0112,-0.0113,-0.0113,-0.0146,-0.0146,-0.0146,-0.0146,-0.0229,-0.0232,-0.0236,-0.0249,0,0,-0.0245,-0.0246,0,0,0,0,0,0,0,0,-0.0024,-0.0029,-0.007,-0.0073,-0.0077,-0.0123,-0.0122,-0.016,-0.0146,-0.0118,-0.0146,-0.0147,-0.0198,-0.0203,-0.0212,-0.0253,-0.0256,-0.0245,-0.0247,-0.0249,-0.0249,0,0,0,0,0,0,0,-0.0021,-0.0026,-0.0071,-0.0071,-0.0075,-0.0095,-0.0101,-0.013,-0.0154,-0.012,-0.0123,-0.0133,-0.02,-0.0209,-0.0214,-0.0258,-0.0245,-0.0248,-0.025,-0.0251,-0.0325,-0.0325,0,0,0,0,0,0,-0.0015,-0.0023,-0.0069,-0.0074,-0.0053,-0.0096,-0.0102,-0.0106,-0.0154,-0.0162,-0.0133,-0.0135,-0.0203,-0.021,-0.0217,-0.0268,-0.0249,-0.0251,-0.0253,-0.0325,-0.0325,-0.0325,0,0,0,0,0,0,-0.0014,-0.0019,-0.0067,-0.0052,-0.006,-0.0097,-0.0101,-0.0107,-0.0123,-0.0163,-0.0171,-0.0143,-0.0204,-0.0213,-0.0239,-0.027,-0.0253,-0.0256,-0.0325,-0.0325,-0.0325,-0.0349,0,0,0,0,0,0,-0.0011,-0.0017,-0.002,-0.0051,-0.006,-0.0082,-0.0101,-0.0108,-0.0129,-0.0132,-0.0175,-0.0183,-0.0205,-0.0234,-0.0242,-0.0274,-0.0258,-0.0325,-0.0325,-0.0325,-0.0348,-0.035,-0.0352,0,0,0,0,0,-0.0009,-0.0012,-0.002,-0.0026,-0.0062,-0.0082,-0.0088,-0.0115,-0.013,-0.0131,-0.0159,-0.0182,-0.0241,-0.0236,-0.0245,-0.028,-0.0325,-0.0325,-0.0325,-0.0347,-0.035,-0.0352,0,0,0,0,0,0,0.0009,-0.0017,-0.0026,-0.0037,-0.0056,-0.0088,-0.0098,-0.0116,-0.014,-0.0146,-0.0181,-0.019,-0.0228,-0.024,-0.0233,-0.0298,-0.0288,-0.029,-0.0302,-0.0304,-0.0306,-0.0308,-0.0261,0,0,0,0,0,0.0014,0.0008,-0.002,-0.0028,-0.0037,-0.0067,-0.0082,-0.0098,-0.0124,-0.0135,-0.017,-0.0202,-0.0235,-0.0256,-0.0282,-0.0316,-0.0323,-0.0342,-0.0344,-0.0345,-0.0351,-0.0382,-0.0388,-0.0326,-0.0326,-0.0326,0,0,0.0017,0.0002,-0.0002,-0.0024,-0.0042,-0.0051,-0.0076,-0.0095,-0.0116,-0.0141,-0.0181,-0.021,-0.0243,-0.0282,-0.0301,-0.0298,-0.0362,-0.0345,-0.0347,-0.0352,-0.0383,-0.039,-0.0395,-0.0326,-0.0326,-0.0326,0,0,0.0025,0.0011,0.001,-0.0,-0.0025,-0.0044,-0.0048,-0.0085,-0.0115,-0.0149,-0.0179,-0.0219,-0.0267,-0.0303,-0.0325,-0.0349,-0.0368,-0.036,-0.0381,-0.0411,-0.0417,-0.0422,-0.0425,-0.043,-0.0365,-0.0365,-0.0365,0,0.003,0.0025,0.0006,0.0006,-0.0008,-0.0038,-0.0044,-0.0075,-0.0119,-0.0153,-0.0161,-0.0248,-0.028,-0.0338,-0.0353,-0.0358,-0.0365,-0.0374,-0.0415,-0.0421,-0.0426,-0.0427,-0.0433,-0.0366,-0.0366,-0.0366,-0.0365,0,0.004,0.0037,0.0035,0.0025,0.001,0.0001,-0.004,-0.007,-0.0113,-0.0152,-0.0223,-0.0268,-0.0317,-0.0344,-0.0362,-0.0421,-0.041,-0.0413,-0.0414,-0.0434,-0.0433,-0.0439,-0.0368,-0.0367,-0.0367,-0.0366,0,0,0.0053,0.0043,0.0044,0.0043,0.0017,0.0008,-0.0032,-0.0083,-0.0109,-0.0179,-0.0224,-0.0311,-0.0341,-0.0367,-0.0402,-0.0445,-0.049,-0.045,-0.0451,-0.0458,-0.054,-0.0477,-0.0477,-0.0504,-0.0506,-0.0507,-0.0521,0,0.0065,0.0078,0.0055,0.0056,0.0059,0.0014,-0.0017,-0.0067,-0.0117,-0.0163,-0.025,-0.0293,-0.0348,-0.0366,-0.0426,-0.0464,-0.0508,-0.0485,-0.0514,-0.0515,-0.0462,-0.0483,-0.0467,-0.0474,-0.0526,-0.0527,-0.0528,0,0.0083,0.0091,0.0096,0.0075,0.0067,0.0056,0.0006,-0.0026,-0.0102,-0.0144,-0.0215,-0.0262,-0.0345,-0.0373,-0.048,-0.0462,-0.0509,-0.0546,-0.0547,-0.0486,-0.0463,-0.0465,-0.0482,-0.0537,-0.0536,-0.0536,-0.0535,0,0.0119,0.0113,0.0116,0.0114,0.0088,0.0062,0.0038,-0.0023,-0.0043,-0.0119,-0.0124,-0.0239,-0.0262,-0.0365,-0.045,-0.0465,-0.0546,-0.0565,-0.0557,-0.0551,-0.0542,-0.0534,-0.0645,-0.0645,-0.0645,-0.0645,-0.0645,0,0.0143,0.0148,0.0136,0.0145,0.0145,0.0102,0.0087,0.0046,0.0006,0.002,-0.0102,-0.0089,-0.0262,-0.0325,-0.0429,-0.0496,-0.0527,-0.0563,-0.0558,-0.0546,-0.0537,-0.0597,-0.0591,-0.0646,-0.0645,-0.0645,-0.0645,0,0.0182,0.0173,0.0185,0.0168,0.0166,0.0167,0.0149,0.0149,0.0098,0.0122,0.0109,0.0025,-0.0045,-0.0208,-0.0341,-0.0428,-0.0521,-0.0539,-0.0498,-0.0487,-0.0513,-0.0508,-0.0534,-0.0532,-0.053,-0.0529,-0.0527,0,0.02,0.0213,0.0226,0.0245,0.0237,0.0237,0.0248,0.0203,0.0228,0.0225,0.0261,0.019,0.0188,-0.0,-0.0202,-0.0375,-0.0436,-0.0453,-0.0487,-0.0513,-0.0505,-0.0503,-0.0501,-0.0484,-0.0483,-0.0482,-0.0481,0,0.0238,0.024,0.0258,0.0314,0.0333,0.0359,0.0381,0.0425,0.0408,0.0448,0.0522,0.0523,0.0339,0.0173,-0.0087,-0.0209,-0.0431,-0.043,-0.0486,-0.0499,-0.0463,-0.0457,-0.0457,-0.0471,-0.0472,-0.0472,-0.0473,-0.0473,0.0267,0.0294,0.0327,0.0377,0.0414,0.0483,0.0529,0.0584,0.0663,0.0729,0.073,0.0728,0.0504,0.019,-0.0037,-0.0306,-0.0303,-0.04,-0.0406,-0.0412,-0.0388,-0.035,-0.033,-0.033,-0.0331,-0.0331,-0.0331,0,0.0307,0.0338,0.0391,0.0453,0.0517,0.0521,0.0622,0.0679,0.0816,0.087,0.0923,0.0744,0.0551,0.0275,-0.0099,-0.0294,-0.036,-0.0363,-0.0415,-0.0422,-0.0429,-0.041,-0.0356,-0.0357,-0.0358,-0.0358,0,0,0.0327,0.0384,0.0417,0.0532,0.0581,0.0676,0.0748,0.0847,0.091,0.0986,0.098,0.0923,0.063,0.0359,0.0062,-0.015,-0.0243,-0.0194,-0.0149,-0.0183,-0.0187,-0.0422,-0.0394,0,0,0,0,0]}],[{"header":{"parameterUnit":"m.s-1","parameterCategory":2,"la1":30.2991,"la2":30.254,"lo1":-89.0895,"lo2":-89.0444,"dy":0.0017,"dx":0.0017,"nx":28,"ny":28,"refTime":"2023-10-03T21:00:00:Z","depth":"4","parameterNumber":2,"parameterNumberName":"U-component_of_CURRENTS"},"data":[0,0,0,0,0,0,0,0,0,0,0,0,0,0,0,0,0,0,0,0,0,0,0,0,0,0,0,0,0,0,0,0,0,0,0,0,0,0,0,0,0,0,0,0,0,0,0,0,0,0,0,0,0,0,0,0,0,0,0.0972,0.0973,0,0.1031,0.1031,0.1032,0.1094,0.1095,0.1096,0.1097,0.1165,0.1166,0.1166,0,0,0,0,0,0,0,0,0,0,0,0,0,0.0927,0.0927,0.0972,0.0973,0.0974,0.1031,0.1031,0.1032,0.1094,0.1095,0.1097,0.1098,0.1165,0.1166,0.1166,0,0,0,0,0,0,0,0,0,0,0,0,0,0.0959,0.0927,0.0972,0.1014,0.1019,0.1031,0.1032,0.1032,0.1093,0.1095,0.1097,0.1099,0.1164,0.1166,0.1167,0.1138,0,0,0.117,0.117,0,0,0,0,0,0,0,0,0.0957,0.096,0.1007,0.1011,0.1017,0.106,0.1041,0.1069,0.1093,0.1062,0.1097,0.1099,0.1131,0.1135,0.1138,0.1141,0.1144,0.117,0.1171,0.1171,0.1171,0,0,0,0,0,0,0,0.0955,0.0958,0.0992,0.1008,0.1014,0.1035,0.1041,0.1046,0.1083,0.1064,0.107,0.1081,0.1134,0.1136,0.114,0.1145,0.117,0.1171,0.1171,0.1172,0.1241,0.1243,0,0,0,0,0,0,0.0951,0.0955,0.099,0.0994,0.0994,0.1035,0.1041,0.1041,0.1083,0.1092,0.108,0.1084,0.1134,0.1138,0.1142,0.1205,0.1171,0.1172,0.1173,0.124,0.1242,0.1243,0,0,0,0,0,0,0.095,0.0953,0.0988,0.098,0.0986,0.1034,0.1033,0.1042,0.1077,0.1096,0.1105,0.1111,0.1135,0.1141,0.1179,0.1205,0.1172,0.1173,0.1239,0.1241,0.1242,0.1271,0,0,0,0,0,0,0.0948,0.0952,0.0962,0.0979,0.0987,0.1015,0.1032,0.1042,0.1081,0.1088,0.1124,0.1131,0.1137,0.1177,0.118,0.1206,0.1174,0.1237,0.124,0.1242,0.1268,0.1273,0.1277,0,0,0,0,0,0.0946,0.0954,0.0961,0.0967,0.0994,0.1016,0.1022,0.106,0.1081,0.1097,0.1128,0.1131,0.1194,0.1178,0.1181,0.1209,0.1236,0.1239,0.1242,0.1266,0.1272,0.1277,0,0,0,0,0,0,0.0947,0.0961,0.097,0.0984,0.1008,0.1029,0.1053,0.1072,0.1107,0.1121,0.1139,0.1147,0.119,0.1194,0.1177,0.1237,0.1218,0.1221,0.1236,0.1241,0.1246,0.1249,0.1175,0,0,0,0,0,0.0947,0.0955,0.0973,0.0989,0.1001,0.1029,0.1048,0.1069,0.1097,0.1116,0.114,0.1169,0.1196,0.1217,0.1233,0.126,0.1273,0.1282,0.1287,0.1291,0.1296,0.1352,0.1363,0.1252,0.1252,0.1252,0,0,0.0952,0.0963,0.0969,0.099,0.1012,0.1027,0.1046,0.1078,0.1095,0.1115,0.1154,0.1182,0.1206,0.1242,0.1262,0.1255,0.1326,0.1294,0.1297,0.1301,0.1356,0.1367,0.1377,0.1254,0.1253,0.1253,0,0,0.0961,0.0977,0.0985,0.1002,0.1035,0.1046,0.1061,0.109,0.1114,0.1143,0.1171,0.1219,0.1247,0.1279,0.1296,0.1335,0.1346,0.1346,0.1376,0.143,0.144,0.1449,0.1463,0.1473,0.1352,0.1352,0.1353,0,0.0973,0.0976,0.0995,0.1008,0.1023,0.1056,0.1067,0.109,0.113,0.1151,0.1163,0.1237,0.1264,0.1317,0.1344,0.1346,0.1369,0.1351,0.1437,0.1446,0.1454,0.1467,0.1477,0.1354,0.1354,0.1354,0.1354,0,0.0977,0.0991,0.1003,0.1022,0.1039,0.1058,0.1083,0.1118,0.1148,0.1166,0.1225,0.1265,0.1321,0.1337,0.1358,0.1435,0.1428,0.1432,0.1421,0.1467,0.1477,0.1487,0.1357,0.1356,0.1355,0.1355,0,0,0.0973,0.0998,0.1005,0.1011,0.1045,0.1055,0.1095,0.113,0.1174,0.1206,0.1259,0.1316,0.1356,0.138,0.1417,0.1468,0.1551,0.1488,0.149,0.1499,0.1655,0.1557,0.1558,0.1582,0.1584,0.1586,0.1632,0,0.0974,0.0989,0.1001,0.1019,0.1028,0.1067,0.1097,0.1136,0.1189,0.1251,0.1295,0.1358,0.1365,0.1422,0.1472,0.1549,0.1583,0.1536,0.1613,0.1614,0.1519,0.1569,0.1594,0.164,0.1642,0.1644,0.1645,0,0.0967,0.0979,0.0993,0.1014,0.1022,0.1042,0.111,0.1138,0.1229,0.1288,0.1362,0.1402,0.1496,0.1496,0.1613,0.1591,0.1628,0.166,0.1663,0.1569,0.1535,0.159,0.1664,0.1662,0.1661,0.166,0.1659,0,0.0942,0.0966,0.0974,0.0983,0.1021,0.1045,0.1069,0.1152,0.1204,0.1327,0.1404,0.1483,0.1573,0.162,0.1673,0.1677,0.1773,0.1784,0.1705,0.1697,0.1759,0.1749,0.1847,0.1846,0.1846,0.1846,0.1846,0,0.0922,0.0931,0.0968,0.0975,0.0997,0.1024,0.1071,0.1145,0.1256,0.1318,0.1423,0.1493,0.1622,0.1674,0.1693,0.1717,0.1787,0.1717,0.1713,0.1766,0.1757,0.1764,0.1754,0.1848,0.1848,0.1847,0.1847,0,0.0888,0.0915,0.0927,0.0968,0.0987,0.0999,0.107,0.1116,0.1244,0.1347,0.1396,0.1558,0.1651,0.1701,0.1799,0.176,0.1772,0.1746,0.1768,0.1763,0.1658,0.1649,0.1708,0.1705,0.1703,0.1701,0.1699,0,0.0866,0.0872,0.0918,0.0932,0.0953,0.098,0.101,0.1116,0.1173,0.1346,0.1391,0.154,0.1618,0.1654,0.1728,0.1745,0.1726,0.1707,0.1716,0.1659,0.165,0.1645,0.1639,0.1695,0.1695,0.1694,0.1693,0,0.0824,0.0851,0.0862,0.0898,0.0927,0.094,0.0988,0.1029,0.1144,0.1281,0.1371,0.1431,0.1539,0.161,0.1632,0.1628,0.1715,0.1682,0.1689,0.1698,0.1644,0.1636,0.1634,0.1685,0.1686,0.1687,0.1687,0,0.0794,0.0792,0.0821,0.084,0.0877,0.0881,0.0906,0.0958,0.1027,0.1223,0.1231,0.1374,0.1505,0.1547,0.1539,0.1561,0.158,0.1534,0.1548,0.1559,0.1492,0.14,0.1373,0,0,0,0,0,0.0754,0.0744,0.076,0.0764,0.0797,0.0826,0.0888,0.0921,0.1031,0.1073,0.1158,0.1232,0.1323,0.1388,0.1395,0.15,0.1578,0.1501,0.1528,0.1638,0.1648,0.1586,0,0,0,0,0,0,0.0725,0.0734,0.0734,0.07,0.0701,0.0725,0.0765,0.084,0.086,0.0992,0.1046,0.1166,0.1266,0.1317,0.1376,0.1399,0.1393,0.1594,0.1591,0.1633,0.1642,0.1649,0.1589,0,0,0,0,0]},{"header":{"parameterUnit":"m.s-1","parameterCategory":2,"la1":30.2991,"la2":30.254,"lo1":-89.0895,"lo2":-89.0444,"dy":0.0017,"dx":0.0017,"nx":28,"ny":28,"refTime":"2023-10-03T21:00:00:Z","depth":"4","parameterNumber":3,"parameterNumberName":"V-component_of_CURRENTS"},"data":[0,0,0,0,0,0,0,0,0,0,0,0,0,0,0,0,0,0,0,0,0,0,0,0,0,0,0,0,0,0,0,0,0,0,0,0,0,0,0,0,0,0,0,0,0,0,0,0,0,0,0,0,0,0,0,0,0,0,0.0196,0.0195,0,0.0167,0.0167,0.0167,0.0152,0.0152,0.0152,0.0152,0.0114,0.0113,0.0112,0,0,0,0,0,0,0,0,0,0,0,0,0,0.0215,0.0215,0.0196,0.0195,0.0195,0.0167,0.0167,0.0167,0.0152,0.0152,0.0152,0.0152,0.0114,0.0113,0.0112,0,0,0,0,0,0,0,0,0,0,0,0,0,0.02,0.0215,0.0196,0.0183,0.0182,0.0167,0.0167,0.0167,0.0152,0.0152,0.0152,0.0151,0.0115,0.0113,0.0112,0.0107,0,0,0.0108,0.0107,0,0,0,0,0,0,0,0,0.02,0.0199,0.0186,0.0184,0.0182,0.0162,0.016,0.0146,0.0152,0.0164,0.0152,0.0151,0.0129,0.0126,0.0123,0.0105,0.0104,0.0108,0.0107,0.0106,0.0106,0,0,0,0,0,0,0,0.0202,0.02,0.0185,0.0185,0.0183,0.0171,0.0169,0.0157,0.0148,0.0163,0.0162,0.0157,0.0128,0.0124,0.0122,0.0103,0.0108,0.0107,0.0106,0.0105,0.008,0.008,0,0,0,0,0,0,0.0204,0.0201,0.0186,0.0184,0.019,0.0171,0.0169,0.017,0.0149,0.0145,0.0157,0.0157,0.0126,0.0123,0.012,0.0134,0.0106,0.0105,0.0104,0.008,0.008,0.008,0,0,0,0,0,0,0.0205,0.0204,0.0187,0.0191,0.0188,0.0171,0.0172,0.0169,0.0163,0.0144,0.0141,0.0154,0.0126,0.0122,0.0113,0.0132,0.0105,0.0103,0.008,0.008,0.008,0.0148,0,0,0,0,0,0,0.0206,0.0204,0.0207,0.0191,0.0188,0.0181,0.0172,0.0169,0.016,0.0159,0.014,0.0136,0.0126,0.0115,0.0112,0.0129,0.0102,0.008,0.008,0.008,0.0146,0.0151,0.0155,0,0,0,0,0,0.0207,0.0209,0.0208,0.0206,0.0192,0.0181,0.0179,0.0166,0.016,0.016,0.0149,0.0137,0.0114,0.0114,0.011,0.0128,0.0079,0.008,0.008,0.0144,0.015,0.0155,0,0,0,0,0,0,0.0216,0.0207,0.0205,0.0204,0.0196,0.0178,0.0175,0.0167,0.0158,0.0157,0.0139,0.0135,0.0135,0.0116,0.0116,0.0119,0.0095,0.0094,0.0144,0.015,0.0154,0.019,0.0101,0,0,0,0,0,0.022,0.0222,0.021,0.021,0.0206,0.0192,0.0186,0.0179,0.0167,0.0163,0.0152,0.0139,0.0133,0.0129,0.0117,0.0118,0.01,0.0124,0.0129,0.0133,0.0158,0.0143,0.0149,0.0081,0.0081,0.0081,0,0,0.0224,0.0219,0.022,0.0212,0.0205,0.021,0.0188,0.0181,0.0196,0.016,0.0174,0.0154,0.0135,0.0141,0.0139,0.0128,0.0138,0.0134,0.0138,0.0161,0.0144,0.0151,0.0157,0.0082,0.0081,0.0081,0,0,0.0231,0.0228,0.0232,0.023,0.0221,0.0219,0.0218,0.0205,0.0211,0.0219,0.0198,0.0193,0.0179,0.0177,0.0173,0.0193,0.0162,0.0179,0.0236,0.0221,0.0227,0.0232,0.0202,0.0204,0.0183,0.0183,0.0183,0,0.0235,0.0244,0.0231,0.0236,0.0248,0.0226,0.0244,0.0244,0.0234,0.0253,0.0233,0.0231,0.0206,0.0228,0.0234,0.0208,0.0185,0.022,0.0229,0.0234,0.0238,0.0206,0.0207,0.0187,0.0186,0.0186,0.0185,0,0.0246,0.0257,0.0259,0.0269,0.028,0.0287,0.0294,0.0303,0.0308,0.0316,0.0339,0.031,0.0313,0.0297,0.0274,0.0294,0.0261,0.0237,0.0222,0.025,0.0213,0.0213,0.0191,0.019,0.0189,0.0188,0,0,0.0245,0.0265,0.0267,0.0294,0.0304,0.0319,0.0349,0.0382,0.0413,0.0409,0.0452,0.0439,0.0425,0.0419,0.0383,0.0371,0.0365,0.0322,0.0319,0.0304,0.0319,0.025,0.0243,0.0339,0.034,0.034,0.0275,0,0.026,0.0289,0.0302,0.035,0.0372,0.0386,0.0425,0.0456,0.0472,0.05,0.0494,0.0505,0.0471,0.0462,0.0454,0.0382,0.0371,0.0384,0.0285,0.0282,0.0227,0.0243,0.0343,0.0276,0.0276,0.0276,0.0276,0,0.0269,0.0294,0.0342,0.0413,0.0427,0.0459,0.0531,0.0566,0.06,0.0609,0.0627,0.0604,0.0596,0.0549,0.0486,0.0493,0.0424,0.0369,0.0364,0.0284,0.0214,0.0243,0.0276,0.0276,0.0276,0.0276,0.0276,0,0.0281,0.033,0.0381,0.0398,0.0463,0.0507,0.0554,0.0604,0.0648,0.0672,0.0679,0.0679,0.0653,0.0598,0.0487,0.0481,0.0402,0.0372,0.0254,0.0247,0.03,0.0295,0.034,0.034,0.0341,0.0341,0.0341,0,0.0295,0.0336,0.0392,0.0418,0.05,0.0545,0.0633,0.0664,0.0716,0.0758,0.0737,0.0732,0.0661,0.0601,0.0514,0.0384,0.0422,0.0276,0.0234,0.0325,0.0324,0.0298,0.0294,0.0338,0.0339,0.0339,0.034,0,0.0297,0.0326,0.0388,0.0468,0.0504,0.0567,0.0679,0.0731,0.0764,0.0806,0.0807,0.077,0.0668,0.0587,0.0469,0.0395,0.0287,0.0231,0.0334,0.0296,0.0135,0.0136,0.0098,0.0095,0.0093,0.0091,0.0089,0,0.0301,0.0328,0.0419,0.0462,0.0502,0.06,0.0666,0.0746,0.079,0.0813,0.0819,0.0741,0.0691,0.0491,0.0397,0.0237,0.0206,0.0158,0.0161,0.0152,0.0115,0.0119,0.0122,0.0085,0.0084,0.0084,0.0083,0,0.0313,0.0339,0.0391,0.0471,0.0545,0.0635,0.0726,0.0756,0.0826,0.0852,0.0803,0.0705,0.0584,0.045,0.0324,0.0211,0.0199,0.0133,0.0137,0.0139,0.0136,0.0102,0.0108,0.0075,0.0076,0.0077,0.0077,0,0.0321,0.0351,0.041,0.0484,0.0568,0.0637,0.0696,0.0741,0.0793,0.081,0.0784,0.0672,0.0625,0.0432,0.032,0.02,0.016,0.0128,0.0131,0.0139,0.0166,0.017,0.0093,0,0,0,0,0,0.0329,0.036,0.0423,0.0499,0.0574,0.0627,0.072,0.0767,0.0818,0.0778,0.0788,0.0671,0.048,0.0409,0.0271,0.026,0.0136,0.0093,0.0101,0.0029,0.0039,0.0057,0,0,0,0,0,0,0.0335,0.0388,0.0416,0.0493,0.0539,0.0631,0.0686,0.0724,0.071,0.0733,0.0636,0.0615,0.0437,0.0547,0.0258,0.0224,0.0205,0.0021,0.0017,0.0024,0.0032,0.004,0.0062,0,0,0,0,0]}]]